Lapse_Rate
2.6 2.7 2.7 3.3 3.8 4.8 5.4 5.0 5.9 4.9 4.4 4.6 5.0 4.8 4.7 4.8 4.9 4.4 3.8 4.1 3.9 2.5
2.7 2.9 3.0 3.3 3.5 3.5 4.7 4.4 4.6 5.3 4.7 4.8 4.9 5.0 4.9 4.4 4.1 3.7 3.2 0.7 -0.2 -0.8
2.4 2.8 3.0 3.0 3.0 3.1 2.3 2.7 2.7 4.5 4.4 4.1 3.8 3.6 3.8 2.6 1.1 0.0 -1.3 -1.6 -1.4 -2.0
1.2 1.5 1.9 2.5 3.1 2.5 2.6 2.7 2.9 2.6 2.8 3.8 3.0 2.5 2.2 1.1 0.3 -0.4 -1.1 -1.3 -1.4 -1.9
3.7 3.4 2.9 3.2 3.6 4.0 4.5 3.5 3.4 3.4 3.5 3.4 2.2 1.8 1.4 1.1 0.5 -0.4 -0.9 -1.5 -1.4 -1.0
3.3 3.5 3.3 3.3 3.7 4.3 4.4 4.2 4.2 3.9 2.9 2.2 1.9 1.8 1.3 0.8 0.4 -0.4 -0.8 -0.4 0.3 0.6
4.1 4.3 3.8 3.5 3.2 3.0 3.0 2.8 2.5 2.5 2.1 1.9 1.5 1.1 0.7 0.6 0.0 -0.1 0.1 0.3 1.0 1.6
3.7 3.4 3.0 2.5 2.3 2.1 1.9 1.7 1.6 1.1 0.8 0.5 0.6 0.4 0.1 0.4 -0.0 0.4 0.1 1.0 1.0 1.6
2.5 1.8 1.4 1.2 1.0 0.9 0.6 0.3 0.2 0.3 0.3 0.2 0.9 1.5 1.4 1.2 0.6 0.6 0.8 1.0 0.5 1.1
2.3 2.3 2.2 1.9 1.4 1.0 0.2 0.2 -0.2 0.5 1.4 1.4 2.9 3.9 3.3 2.3 0.4 0.6 0.8 1.0 1.1 1.8
2.1 1.3 0.6 -0.1 0.1 0.2 0.7 0.8 0.7 1.2 1.7 1.9 3.8 4.3 3.6 2.8 1.0 1.3 1.1 1.1 1.4 2.7
1.7 1.1 0.6 -0.4 -0.7 0.5 0.9 1.1 1.1 1.3 1.1 1.2 3.1 4.5 3.8 2.5 0.8 0.2 0.4 1.2 1.6 2.7
1.1 0.6 0.9 0.9 0.7 1.0 1.7 1.8 2.4 2.6 1.7 3.3 1.5 4.2 3.6 2.0 0.7 0.5 1.0 1.6 2.3 4.3
1.5 1.7 1.9 2.0 2.1 2.2 2.2 2.4 1.8 1.2 1.7 1.4 1.5 2.2 4.2 4.5 2.3 2.1 1.9 2.3 2.6 2.6
Wind_Speed
7 3 3 3 4 3 2 3 5 5 4 4 4 4 5 4 6 5 4 6 3 2
6 6 4 5 4 4 2 3 5 0 5 5 5 4 4 3 4 4 3 4 5 4
5 5 6 5 5 5 6 6 6 4 3 3 3 3 2 3 4 6 4 4 7 6
6 7 6 5 5 5 4 5 5 4 4 4 5 5 5 6 6 7 7 6 7 7
6 5 5 6 6 4 4 5 5 6 7 7 6 6 6 7 6 7 7 7 8 7
8 8 8 9 9 10 10 10 10 10 10 9 9 9 9 9 9 9 9 7 6 6
7 7 7 8 9 9 9 10 9 9 9 9 9 10 10 10 10 9 8 9 8 6
6 6 7 8 8 8 9 9 9 9 9 8 7 7 8 9 10 9 10 8 9 7
6 7 7 7 8 9 9 9 9 10 9 10 8 18 18 11 9 9 9 8 8 6
6 7 7 7 9 9 9 9 10 11 10 10 11 17 17 17 7 8 7 6 5 5
5 7 7 8 8 8 8 8 8 9 9 9 8 16 16 15 6 6 5 5 5 4
5 6 7 8 8 7 8 8 8 7 7 6 7 13 13 9 6 6 5 4 3 0
6 7 7 7 9 7 8 8 6 6 6 10 5 11 10 7 3 4 2 3 4 5
7 8 7 8 7 7 7 6 5 5 6 6 6 6 9 9 4 3 2 2 2 2
Wind_Direction
342 322 310 320 325 291 235 200 164 168 182 238 243 228 215 219 226 209 213 226 219 143
334 342 325 316 336 346 355 77 45 273 213 212 213 226 229 214 209 194 168 106 114 112
337 338 332 335 344 10 49 63 55 41 53 82 81 68 77 67 51 93 78 85 102 102
6 7 6 9 29 49 47 53 59 69 70 63 61 60 75 74 74 84 84 83 95 96
17 24 26 25 23 30 72 71 75 76 73 67 65 65 79 82 82 87 89 97 101 110
38 41 42 44 43 49 58 59 61 68 70 66 66 70 71 82 87 92 96 95 97 98
49 50 56 58 60 62 66 73 73 73 78 79 82 86 93 98 97 90 90 97 99 97
71 72 76 78 79 81 80 81 85 89 84 86 90 97 98 96 94 96 87 71 78 76
86 84 83 83 81 81 79 78 83 82 86 88 88 98 96 91 91 89 91 95 84 66
94 93 85 87 85 82 81 81 78 77 75 79 93 98 101 98 85 91 92 93 93 100
92 89 88 84 79 74 77 78 79 79 81 85 95 100 97 94 91 100 105 101 110 136
104 105 94 89 90 85 85 81 77 77 78 76 94 102 105 103 89 88 95 110 139 24
92 90 96 103 97 94 94 95 104 105 106 104 86 92 93 110 115 118 137 165 128 73
98 104 107 101 98 101 98 94 89 90 92 103 96 77 75 74 63 64 79 85 69 58